Location: Newark
(45.9167°N, 11.2667°E)
Time: 19:33:14
(UTC+00:00)

ISS - Visible Passes

Search period start: 20 August 2019 00:00
Search period end: 30 August 2019 00:00
Orbit: 410 x 420 km, 51.6° (Epoch: 21 August)

Date Brightness Start Highest point End Pass type
(mag) Time Alt. Az. Time Alt. Az. Time Alt. Az.
26 Aug -0.9 03:39:10 10° SSE 03:40:19 11° SE 03:41:29 10° ESE visible
28 Aug -2.1 03:36:11 10° SSW 03:39:03 27° SE 03:41:58 10° E visible
29 Aug -1.5 02:49:06 14° SSE 02:50:25 17° SE 02:52:41 10° E visible
